IGO3KG VABB-VILH

Flight info

Callsign IGO3KG
Flight time N/A
Altitude 37000
Route ANOLI2A ISRIS Q1 DPN W35 SP W39 LELAX/N0444F380 W39 TUNPU
Aircraft A320/M-SDE3FGHIRWY/LB1

Departure

Time N/A
Airport Chhatrapati Shivaji Maharaj International Airport (VABB)

Arrival

Time 2026-04-25 12:05
Airport Leh Kushok Bakula Rimpochee Airport (VILH)
Time Latitude Longitude Altitude Speed Heading
2026-04-25 10:05 22.29403 73.39257 36814 ft 447 kts 19°
2026-04-25 10:05 22.32327 73.40402 36814 ft 447 kts 19°
2026-04-25 10:06 22.38172 73.42692 36811 ft 446 kts 19°
2026-04-25 10:06 22.43972 73.44969 36811 ft 446 kts 19°
2026-04-25 10:07 22.49817 73.47261 36814 ft 446 kts 19°
2026-04-25 10:07 22.55664 73.49546 36810 ft 446 kts 19°
2026-04-25 10:08 22.61500 73.51834 36813 ft 446 kts 19°
2026-04-25 10:08 22.67337 73.54135 36814 ft 446 kts 19°
2026-04-25 10:09 22.73176 73.56436 36817 ft 447 kts 19°
2026-04-25 10:09 22.78979 73.58723 36815 ft 447 kts 19°
2026-04-25 10:10 22.84820 73.61034 36817 ft 447 kts 19°
2026-04-25 10:10 22.90662 73.63339 36824 ft 447 kts 19°
2026-04-25 10:11 22.96507 73.65643 36823 ft 447 kts 19°
2026-04-25 10:11 23.02345 73.67955 36824 ft 446 kts 19°
2026-04-25 10:12 23.08180 73.70270 36825 ft 446 kts 19°
2026-04-25 10:13 23.16894 73.73724 36822 ft 446 kts 19°
2026-04-25 10:13 23.22728 73.76037 36820 ft 446 kts 19°
2026-04-25 10:14 23.28556 73.78350 36827 ft 446 kts 19°
2026-04-25 10:14 23.34379 73.80667 36827 ft 445 kts 19°
2026-04-25 10:15 23.40193 73.82979 36828 ft 445 kts 19°
2026-04-25 10:15 23.46005 73.85292 36825 ft 445 kts 19°
2026-04-25 10:16 23.51776 73.87590 36824 ft 444 kts 19°
2026-04-25 10:16 23.57580 73.89905 36828 ft 444 kts 19°
2026-04-25 10:17 23.63386 73.92229 36826 ft 444 kts 19°
2026-04-25 10:17 23.69180 73.94543 36823 ft 444 kts 18°
2026-04-25 10:18 23.74979 73.96864 36822 ft 443 kts 18°
2026-04-25 10:18 23.80736 73.99170 36823 ft 443 kts 18°
2026-04-25 10:19 23.86526 74.01496 36825 ft 443 kts 18°
2026-04-25 10:19 23.92318 74.03821 36828 ft 443 kts 18°
2026-04-25 10:20 23.98110 74.06146 36833 ft 443 kts 18°
2026-04-25 10:20 24.03863 74.08457 36834 ft 443 kts 18°
2026-04-25 10:21 24.09656 74.10784 36843 ft 444 kts 18°
2026-04-25 10:21 24.15451 74.13107 36846 ft 444 kts 18°
2026-04-25 10:22 24.21246 74.15434 36855 ft 443 kts 18°
2026-04-25 10:22 24.27033 74.17768 36860 ft 443 kts 18°
2026-04-25 10:23 24.32821 74.20107 36865 ft 443 kts 18°
2026-04-25 10:23 24.38614 74.22449 36866 ft 444 kts 18°
2026-04-25 10:24 24.44368 74.24776 36868 ft 444 kts 18°
2026-04-25 10:24 24.50165 74.27119 36867 ft 444 kts 18°
2026-04-25 10:25 24.55970 74.29474 36871 ft 445 kts 18°
2026-04-25 10:25 24.61780 74.31835 36871 ft 445 kts 18°
2026-04-25 10:26 24.67598 74.34198 36872 ft 446 kts 18°
2026-04-25 10:26 24.73419 74.36568 36870 ft 446 kts 18°
2026-04-25 10:27 24.79202 74.38922 36876 ft 446 kts 18°
2026-04-25 10:27 24.85022 74.41299 36867 ft 446 kts 18°
2026-04-25 10:28 24.90855 74.43677 36870 ft 447 kts 18°
2026-04-25 10:28 24.96683 74.46052 36869 ft 447 kts 18°
2026-04-25 10:29 25.02515 74.48435 36867 ft 447 kts 18°
2026-04-25 10:29 25.08348 74.50826 36863 ft 447 kts 18°
2026-04-25 10:30 25.14150 74.53204 36860 ft 447 kts 18°
2026-04-25 10:30 25.19984 74.55603 36859 ft 447 kts 18°
2026-04-25 10:31 25.25822 74.58004 36863 ft 447 kts 18°
2026-04-25 10:31 25.31647 74.60406 36853 ft 447 kts 18°
2026-04-25 10:32 25.37473 74.62815 36857 ft 447 kts 18°
2026-04-25 10:32 25.43264 74.65207 36852 ft 447 kts 18°
2026-04-25 10:33 25.49087 74.67615 36844 ft 446 kts 18°
2026-04-25 10:33 25.54907 74.70021 36846 ft 446 kts 18°
2026-04-25 10:34 25.60722 74.72431 36843 ft 446 kts 18°
2026-04-25 10:34 25.66537 74.74845 36845 ft 446 kts 18°
2026-04-25 10:35 25.72347 74.77252 36839 ft 446 kts 18°
2026-04-25 10:35 25.78167 74.79668 36840 ft 446 kts 18°
2026-04-25 10:36 25.83941 74.82072 36844 ft 446 kts 18°
2026-04-25 10:36 25.89754 74.84496 36848 ft 446 kts 18°
2026-04-25 10:37 25.95565 74.86924 36853 ft 446 kts 18°
2026-04-25 10:37 26.01379 74.89352 36852 ft 446 kts 18°
2026-04-25 10:38 26.07187 74.91783 36853 ft 446 kts 18°
2026-04-25 10:38 26.12993 74.94213 36857 ft 446 kts 18°
2026-04-25 10:39 26.18759 74.96630 36860 ft 445 kts 18°
2026-04-25 10:39 26.24562 74.99050 36860 ft 445 kts 18°
2026-04-25 10:40 26.30368 75.01471 36868 ft 445 kts 18°
2026-04-25 10:40 26.36161 75.03892 36873 ft 445 kts 18°
2026-04-25 10:41 26.41952 75.06317 36876 ft 444 kts 18°
2026-04-25 10:41 26.47742 75.08739 36880 ft 444 kts 18°
2026-04-25 10:42 26.53493 75.11146 36884 ft 444 kts 18°
2026-04-25 10:42 26.59284 75.13579 36878 ft 444 kts 18°
2026-04-25 10:43 26.65069 75.15997 36884 ft 444 kts 18°
2026-04-25 10:43 26.70858 75.18421 36878 ft 444 kts 18°
2026-04-25 10:44 26.76634 75.20855 36878 ft 444 kts 18°
2026-04-25 10:44 26.82374 75.23273 36879 ft 444 kts 18°
2026-04-25 10:45 26.88150 75.25710 36880 ft 444 kts 18°
2026-04-25 10:45 26.93928 75.28145 36876 ft 444 kts 18°
2026-04-25 10:46 26.99709 75.30586 36883 ft 444 kts 18°
2026-04-25 10:46 27.05491 75.33023 36878 ft 444 kts 18°
2026-04-25 10:47 27.11268 75.35469 36879 ft 444 kts 18°
2026-04-25 10:47 27.17013 75.37900 36881 ft 444 kts 18°
2026-04-25 10:48 27.22515 75.41064 36875 ft 449 kts 34°
2026-04-25 10:48 27.27121 75.45850 36874 ft 452 kts 42°
2026-04-25 10:49 27.31609 75.50801 36745 ft 452 kts 41°
2026-04-25 10:49 27.33099 75.52440 36852 ft 454 kts 41°
2026-04-25 10:49 27.36134 75.55777 36857 ft 457 kts 41°
2026-04-25 10:50 27.40685 75.60800 36850 ft 459 kts 42°
2026-04-25 10:50 27.45232 75.65848 36854 ft 459 kts 42°
2026-04-25 10:51 27.49759 75.70872 36858 ft 460 kts 41°
2026-04-25 10:51 27.54321 75.75929 36858 ft 460 kts 41°
2026-04-25 10:52 27.58879 75.80993 36859 ft 460 kts 41°
2026-04-25 10:52 27.63440 75.86061 36856 ft 460 kts 41°
2026-04-25 10:53 27.68008 75.91149 36859 ft 460 kts 42°
2026-04-25 10:53 27.72543 75.96249 36853 ft 460 kts 42°
2026-04-25 10:54 27.77079 76.01350 36854 ft 460 kts 42°
2026-04-25 10:54 27.81589 76.06413 36851 ft 460 kts 42°
2026-04-25 10:55 27.86130 76.11509 36851 ft 460 kts 42°
2026-04-25 10:55 27.90666 76.16617 36847 ft 460 kts 42°
2026-04-25 10:56 27.95192 76.21731 36848 ft 460 kts 42°
2026-04-25 10:56 27.99727 76.26845 36841 ft 460 kts 42°
2026-04-25 10:57 28.04254 76.31967 36839 ft 460 kts 42°
2026-04-25 10:57 28.08787 76.37100 36839 ft 461 kts 42°
2026-04-25 10:58 28.13323 76.42246 36834 ft 462 kts 42°
2026-04-25 10:58 28.17840 76.47370 36836 ft 463 kts 42°
2026-04-25 10:59 28.22393 76.52541 36833 ft 464 kts 42°
2026-04-25 10:59 28.26953 76.57732 36828 ft 465 kts 42°
2026-04-25 11:00 28.31520 76.62940 36816 ft 466 kts 42°
2026-04-25 11:00 28.35120 76.67504 36814 ft 470 kts 52°
2026-04-25 11:01 28.38495 76.73886 36813 ft 472 kts 57°
2026-04-25 11:01 28.41810 76.80325 36806 ft 472 kts 57°
2026-04-25 11:02 28.45136 76.86767 36803 ft 472 kts 57°
2026-04-25 11:02 28.48420 76.93172 36788 ft 472 kts 57°
2026-04-25 11:03 28.51727 76.99627 36775 ft 472 kts 57°
2026-04-25 11:03 28.55556 77.05608 36770 ft 464 kts 40°
2026-04-25 11:04 28.60768 77.09750 36762 ft 453 kts 20°
2026-04-25 11:04 28.66726 77.11748 36765 ft 445 kts
2026-04-25 11:05 28.72798 77.13195 36781 ft 446 kts
2026-04-25 11:05 28.78875 77.14657 36785 ft 446 kts
2026-04-25 11:06 28.84919 77.16112 36792 ft 447 kts
2026-04-25 11:06 28.91003 77.17578 36796 ft 447 kts
2026-04-25 11:07 28.97095 77.19046 36804 ft 447 kts
2026-04-25 11:07 29.03182 77.20506 36806 ft 447 kts
2026-04-25 11:08 29.09274 77.21967 36806 ft 447 kts
2026-04-25 11:08 29.15365 77.23441 36805 ft 447 kts
2026-04-25 11:09 29.21411 77.24904 36805 ft 447 kts
2026-04-25 11:09 29.27504 77.26382 36807 ft 448 kts
2026-04-25 11:10 29.33608 77.27858 36801 ft 448 kts
2026-04-25 11:10 29.39716 77.29334 36804 ft 448 kts
2026-04-25 11:11 29.45817 77.30812 36800 ft 449 kts
2026-04-25 11:11 29.51926 77.32307 36804 ft 449 kts
2026-04-25 11:12 29.58041 77.33800 36792 ft 449 kts
2026-04-25 11:12 29.64124 77.35283 36794 ft 450 kts
2026-04-25 11:13 29.70256 77.36773 36793 ft 450 kts
2026-04-25 11:13 29.76392 77.38269 36790 ft 451 kts
2026-04-25 11:14 29.82536 77.39777 36788 ft 451 kts
2026-04-25 11:14 29.88683 77.41286 36788 ft 452 kts
2026-04-25 11:15 29.94838 77.42786 36783 ft 452 kts
2026-04-25 11:15 30.01021 77.43957 36781 ft 448 kts 359°
2026-04-25 11:16 30.10362 77.44679 36782 ft 449 kts 360°
2026-04-25 11:16 30.16561 77.45167 36782 ft 449 kts 360°
2026-04-25 11:17 30.22810 77.45656 36786 ft 450 kts 360°
2026-04-25 11:17 30.29057 77.46144 36798 ft 450 kts 359°
2026-04-25 11:18 30.35316 77.46632 36807 ft 450 kts 359°
2026-04-25 11:18 30.41496 77.47119 36788 ft 440 kts
2026-04-25 11:19 30.47548 77.47588 36812 ft 438 kts
2026-04-25 11:19 30.53626 77.48073 36837 ft 438 kts
2026-04-25 11:20 30.59709 77.48548 36852 ft 438 kts
2026-04-25 11:20 30.65788 77.49025 36872 ft 438 kts
2026-04-25 11:21 30.71867 77.49510 36891 ft 438 kts
2026-04-25 11:21 30.77944 77.49994 36906 ft 438 kts
2026-04-25 11:22 30.83008 77.50392 36917 ft 438 kts
2026-04-25 11:22 30.90083 77.50948 36928 ft 439 kts
2026-04-25 11:23 30.96180 77.51430 36943 ft 439 kts
2026-04-25 11:23 31.02281 77.51912 36948 ft 439 kts
2026-04-25 11:24 31.08384 77.52396 36956 ft 440 kts
2026-04-25 11:24 31.14506 77.52883 36964 ft 441 kts
2026-04-25 11:25 31.20591 77.53379 36975 ft 441 kts
2026-04-25 11:25 31.26720 77.53886 36985 ft 442 kts
2026-04-25 11:26 31.32862 77.54393 37001 ft 443 kts
2026-04-25 11:26 31.39011 77.54895 37015 ft 443 kts
2026-04-25 11:27 31.45172 77.55397 37023 ft 444 kts
2026-04-25 11:27 31.50308 77.55820 37040 ft 446 kts
2026-04-25 11:28 31.57542 77.56414 37078 ft 446 kts
2026-04-25 11:28 31.63745 77.56921 37112 ft 447 kts
2026-04-25 11:29 31.69921 77.57432 37149 ft 448 kts
2026-04-25 11:29 31.76143 77.57950 37181 ft 448 kts
2026-04-25 11:30 31.82362 77.58459 37212 ft 448 kts
2026-04-25 11:30 31.88580 77.58978 37251 ft 448 kts
2026-04-25 11:31 31.94804 77.59501 37279 ft 449 kts
2026-04-25 11:31 32.01034 77.60020 37284 ft 449 kts
2026-04-25 11:32 32.07268 77.60533 37302 ft 449 kts
2026-04-25 11:32 32.13473 77.61050 37310 ft 449 kts
2026-04-25 11:33 32.19711 77.61570 37320 ft 450 kts
2026-04-25 11:33 32.25968 77.62093 37327 ft 451 kts 360°
2026-04-25 11:34 32.32228 77.62613 37324 ft 451 kts 360°
2026-04-25 11:34 32.38483 77.63129 37321 ft 450 kts 358°
2026-04-25 11:35 32.44713 77.63016 37320 ft 448 kts 354°
2026-04-25 11:35 32.50906 77.62820 37317 ft 449 kts 354°
2026-04-25 11:36 32.57124 77.62627 37307 ft 447 kts 354°
2026-04-25 11:36 32.63352 77.62420 37307 ft 448 kts 354°
2026-04-25 11:37 32.69588 77.62216 37115 ft 449 kts 354°
2026-04-25 11:37 32.72737 77.62112 35958 ft 459 kts 354°
2026-04-25 11:37 32.75960 77.62005 34923 ft 467 kts 354°
2026-04-25 11:38 32.79205 77.61899 34408 ft 463 kts 354°
2026-04-25 11:38 32.82412 77.61797 33842 ft 459 kts 354°
2026-04-25 11:38 32.85591 77.61699 33317 ft 455 kts 354°
2026-04-25 11:38 32.88746 77.61603 32781 ft 452 kts 354°
2026-04-25 11:39 32.91873 77.61507 32279 ft 447 kts 354°
2026-04-25 11:39 32.94943 77.61414 32155 ft 434 kts 354°
2026-04-25 11:39 32.97881 77.61326 32055 ft 422 kts 354°
2026-04-25 11:39 33.00771 77.61240 31961 ft 410 kts 354°
2026-04-25 11:40 33.06331 77.61064 31780 ft 393 kts 353°
2026-04-25 11:40 33.11825 77.60866 31627 ft 395 kts 352°
2026-04-25 11:41 33.17323 77.60681 31451 ft 395 kts 353°
2026-04-25 11:41 33.22813 77.60506 31274 ft 394 kts 353°
2026-04-25 11:42 33.28292 77.60329 31107 ft 393 kts 352°
2026-04-25 11:42 33.33760 77.60156 30927 ft 393 kts 352°
2026-04-25 11:43 33.39198 77.59976 30759 ft 393 kts 352°
2026-04-25 11:43 33.44671 77.59800 30595 ft 392 kts 352°
2026-04-25 11:44 33.50124 77.59622 30432 ft 391 kts 352°
2026-04-25 11:44 33.55631 77.59449 30159 ft 410 kts 355°
2026-04-25 11:45 33.58509 77.59957 29904 ft 427 kts 13°
2026-04-25 11:45 33.61197 77.61566 29649 ft 439 kts 33°
2026-04-25 11:45 33.63348 77.64190 29397 ft 447 kts 54°
2026-04-25 11:45 33.64667 77.67520 29156 ft 450 kts 75°
2026-04-25 11:46 33.65007 77.71234 28919 ft 449 kts 96°
2026-04-25 11:46 33.64319 77.74846 28680 ft 443 kts 116°
2026-04-25 11:46 33.62729 77.77942 28447 ft 432 kts 136°
2026-04-25 11:46 33.60484 77.80256 28221 ft 423 kts 150°
2026-04-25 11:47 33.58052 77.82236 27996 ft 422 kts 151°
2026-04-25 11:47 33.55610 77.84190 27763 ft 421 kts 151°
2026-04-25 11:47 33.53175 77.86127 27539 ft 420 kts 151°
2026-04-25 11:47 33.50746 77.88060 27306 ft 418 kts 151°
2026-04-25 11:48 33.48327 77.89993 27092 ft 418 kts 150°
2026-04-25 11:48 33.45916 77.91923 26869 ft 417 kts 150°
2026-04-25 11:48 33.43538 77.93826 26647 ft 416 kts 150°
2026-04-25 11:48 33.41135 77.95748 26421 ft 416 kts 150°
2026-04-25 11:49 33.38734 77.97673 26218 ft 415 kts 150°
2026-04-25 11:49 33.36344 77.99594 26003 ft 413 kts 150°
2026-04-25 11:49 33.33961 78.01506 25774 ft 411 kts 150°
2026-04-25 11:49 33.31603 78.03445 25534 ft 412 kts 145°
2026-04-25 11:50 33.29723 78.06036 25297 ft 418 kts 120°
2026-04-25 11:50 33.28812 78.09324 25072 ft 420 kts 96°
2026-04-25 11:50 33.29023 78.12770 24836 ft 416 kts 71°
2026-04-25 11:50 33.30315 78.15810 24610 ft 407 kts 46°
2026-04-25 11:51 33.32440 78.17936 24376 ft 394 kts 22°
2026-04-25 11:51 33.35003 78.18811 24153 ft 378 kts 357°
2026-04-25 11:51 33.37527 78.18336 23936 ft 363 kts 332°
2026-04-25 11:51 33.39547 78.16709 23713 ft 354 kts 313°
2026-04-25 11:52 33.41327 78.14675 23443 ft 354 kts 313°
2026-04-25 11:52 33.43109 78.12633 23181 ft 354 kts 313°
2026-04-25 11:52 33.44884 78.10596 22916 ft 353 kts 313°
2026-04-25 11:52 33.46657 78.08563 22658 ft 352 kts 313°
2026-04-25 11:53 33.48420 78.06535 22391 ft 350 kts 313°
2026-04-25 11:53 33.50172 78.04513 22126 ft 350 kts 313°
2026-04-25 11:53 33.51919 78.02496 21872 ft 348 kts 313°
2026-04-25 11:53 33.53659 78.00487 21624 ft 347 kts 313°
2026-04-25 11:54 33.55399 77.98479 21368 ft 347 kts 313°
2026-04-25 11:54 33.57134 77.96471 21106 ft 346 kts 313°
2026-04-25 11:54 33.60592 77.92468 20618 ft 344 kts 314°
2026-04-25 11:55 33.62310 77.90480 20372 ft 343 kts 313°
2026-04-25 11:55 33.64003 77.88520 20130 ft 342 kts 314°
2026-04-25 11:55 33.65712 77.86542 19888 ft 342 kts 314°
2026-04-25 11:55 33.67425 77.84576 19655 ft 341 kts 316°
2026-04-25 11:56 33.69427 77.83045 19420 ft 343 kts 333°
2026-04-25 11:56 33.71606 77.81872 19180 ft 343 kts 333°
2026-04-25 11:56 33.73779 77.80706 18955 ft 342 kts 333°
2026-04-25 11:56 33.75950 77.79539 18716 ft 341 kts 333°
2026-04-25 11:57 33.78109 77.78375 18491 ft 340 kts 333°
2026-04-25 11:57 33.80261 77.77207 18234 ft 338 kts 333°
2026-04-25 11:57 33.82401 77.76047 17959 ft 336 kts 333°
2026-04-25 11:57 33.84529 77.74894 17726 ft 335 kts 333°
2026-04-25 11:58 33.86660 77.73742 17503 ft 335 kts 333°
2026-04-25 11:58 33.88764 77.72602 17284 ft 336 kts 333°
2026-04-25 11:58 33.90874 77.71459 17048 ft 328 kts 333°
2026-04-25 11:58 33.92930 77.70346 16831 ft 320 kts 333°
2026-04-25 11:59 33.94934 77.69258 16605 ft 312 kts 333°
2026-04-25 11:59 33.96896 77.68196 16390 ft 306 kts 333°
2026-04-25 11:59 33.98821 77.67151 16166 ft 301 kts 333°
2026-04-25 12:00 34.02375 77.64725 15761 ft 288 kts 326°
2026-04-25 12:00 34.04064 77.63454 15589 ft 285 kts 326°
2026-04-25 12:00 34.07389 77.60958 15223 ft 278 kts 327°
2026-04-25 12:01 34.08472 77.60147 15092 ft 275 kts 327°
2026-04-25 12:01 34.10628 77.58529 14795 ft 271 kts 328°
2026-04-25 12:01 34.12200 77.57349 14612 ft 267 kts 327°
2026-04-25 12:01 34.13742 77.56116 14503 ft 265 kts 318°
2026-04-25 12:02 34.15673 77.53220 14471 ft 264 kts 306°
2026-04-25 12:02 34.16750 77.51429 14091 ft 267 kts 303°
2026-04-25 12:02 34.17407 77.49333 13397 ft 272 kts 272°
2026-04-25 12:03 34.16950 77.47153 12746 ft 267 kts 236°
2026-04-25 12:03 34.15616 77.45824 12386 ft 246 kts 199°
2026-04-25 12:03 34.14011 77.45785 12149 ft 225 kts 158°
2026-04-25 12:03 34.12889 77.46922 11926 ft 205 kts 122°
2026-04-25 12:04 34.12215 77.48380 11733 ft 191 kts 111°
2026-04-25 12:04 34.12084 77.49916 11411 ft 184 kts 77°
2026-04-25 12:04 34.12545 77.51303 10939 ft 175 kts 49°
2026-04-25 12:04 34.13045 77.52649 10704 ft 178 kts 62°
2026-04-25 12:05 34.13399 77.53904 10630 ft 120 kts 71°
2026-04-25 12:05 34.13569 77.54512 10666 ft 36 kts 70°
2026-04-25 12:05 34.13640 77.54743 10697 ft 24 kts 67°